GFSGL_prec_pwat_132.txt.gz
Precipitable_Water
1.53 1.60 1.69 1.76 1.74 1.83 1.87 1.85 1.84 1.87 1.86 1.75 1.71 1.66 1.68 1.66 1.68 1.65 1.58 1.57 1.55 1.50 1.51 1.50 1.46 1.54 1.48 1.49 1.43 1.40 1.33 1.31 1.11 1.24 1.52 1.50 1.48 1.63 1.69 1.82 1.93 1.52 1.51
1.54 1.57 1.62 1.70 1.77 1.80 1.82 1.86 1.88 1.92 1.97 1.97 1.92 1.83 1.83 1.77 1.77 1.74 1.65 1.67 1.63 1.51 1.52 1.47 1.43 1.47 1.47 1.41 1.34 1.36 1.42 1.48 1.31 1.14 1.34 1.48 1.63 1.77 1.76 1.78 1.74 1.63 1.56
1.60 1.58 1.59 1.61 1.65 1.68 1.76 1.84 1.88 1.91 1.91 1.94 1.99 1.97 1.94 1.92 1.86 1.85 1.81 1.73 1.62 1.59 1.57 1.55 1.49 1.49 1.48 1.51 1.62 1.59 1.58 1.57 1.62 1.54 1.50 1.69 1.70 1.69 1.75 1.82 1.75 1.79 1.67
1.57 1.49 1.50 1.54 1.59 1.68 1.74 1.81 1.84 1.86 1.83 1.87 1.91 2.01 1.98 1.95 2.00 1.97 1.92 1.80 1.71 1.69 1.73 1.78 1.72 1.64 1.62 1.69 1.74 1.72 1.67 1.75 1.84 1.79 1.76 1.74 1.77 1.84 1.84 1.75 1.62 1.75 1.75
1.67 1.61 1.55 1.64 1.71 1.65 1.54 1.55 1.64 1.73 1.82 1.90 1.98 1.93 2.01 1.98 1.94 1.93 1.92 1.93 1.89 1.83 1.82 1.93 1.89 1.87 1.83 1.87 1.84 1.85 1.92 1.93 1.94 1.89 1.93 1.87 1.81 1.81 1.79 1.92 1.78 1.67 1.66
1.75 1.67 1.72 1.72 1.72 1.75 1.77 1.72 1.70 1.58 1.53 1.54 1.68 1.82 1.88 1.87 1.78 1.77 1.87 1.98 1.99 2.03 2.00 1.99 2.00 2.00 1.95 1.90 1.83 1.89 1.97 1.91 1.91 1.91 1.86 1.90 1.97 1.89 1.87 1.86 1.86 1.79 1.61
1.83 1.72 1.69 1.78 1.71 1.76 1.84 1.92 1.93 1.86 1.76 1.53 1.39 1.48 1.56 1.75 1.73 1.60 1.47 1.49 1.69 1.86 1.94 2.07 2.09 2.01 2.00 2.01 1.97 1.98 1.99 2.04 2.03 2.01 1.82 1.86 1.85 1.92 1.94 1.78 1.73 1.58 1.42
1.83 1.83 1.90 1.89 1.91 1.97 1.89 1.89 2.00 2.20 2.01 1.87 1.62 1.47 1.46 1.57 1.50 1.41 1.41 1.47 1.57 1.59 1.58 1.69 1.81 1.85 1.94 2.01 1.99 1.96 1.94 1.96 2.01 1.99 1.95 1.85 1.84 1.83 1.88 1.75 1.70 1.55 1.43
1.86 1.97 1.94 2.03 2.09 1.97 1.92 1.93 2.03 2.16 2.18 2.13 1.99 1.76 1.60 1.54 1.47 1.48 1.51 1.76 1.96 1.95 1.97 1.97 1.95 1.99 1.97 1.94 1.91 1.83 1.81 1.86 1.93 1.89 1.80 1.72 1.69 1.65 1.67 1.66 1.59 1.52 1.37
1.91 2.02 2.02 1.98 2.00 2.06 1.99 2.03 2.06 2.06 2.09 2.08 2.06 1.91 1.75 1.73 1.68 1.71 1.79 1.88 1.88 1.92 1.95 1.97 1.99 1.97 1.96 1.98 1.92 1.81 1.69 1.69 1.72 1.73 1.71 1.66 1.65 1.56 1.56 1.56 1.43 1.23 1.12
1.96 1.87 1.97 1.99 1.93 1.90 1.93 1.93 1.96 1.96 1.98 1.98 1.93 1.94 1.98 1.95 1.87 1.89 1.93 1.95 1.93 1.85 1.79 1.82 1.83 1.82 1.88 1.95 1.97 1.85 1.72 1.72 1.65 1.63 1.60 1.56 1.54 1.52 1.47 1.40 1.29 1.16 1.00
1.89 1.82 1.76 1.75 1.83 1.85 1.82 1.83 1.87 1.96 1.88 1.86 1.88 1.92 1.94 1.96 2.00 1.96 1.98 2.00 1.99 1.90 1.84 1.84 1.88 1.89 1.86 1.85 1.87 1.80 1.73 1.67 1.59 1.54 1.54 1.52 1.50 1.44 1.34 1.21 1.09 0.95 0.86
1.69 1.68 1.72 1.73 1.74 1.74 1.70 1.67 1.76 1.82 1.83 1.81 1.80 1.74 1.79 1.89 1.90 1.91 1.91 1.94 1.93 1.80 1.80 1.83 1.84 1.79 1.80 1.78 1.76 1.73 1.67 1.61 1.58 1.56 1.51 1.46 1.41 1.32 1.16 0.98 0.86 0.82 0.74
1.58 1.60 1.60 1.56 1.51 1.56 1.58 1.63 1.67 1.69 1.67 1.68 1.67 1.70 1.74 1.78 1.77 1.80 1.78 1.79 1.77 1.74 1.71 1.74 1.77 1.75 1.72 1.73 1.69 1.67 1.63 1.59 1.54 1.45 1.35 1.25 1.15 0.96 0.79 0.70 0.62 0.57 0.54
1.53 1.53 1.48 1.46 1.46 1.41 1.45 1.51 1.61 1.66 1.70 1.62 1.58 1.61 1.59 1.59 1.59 1.65 1.67 1.64 1.65 1.64 1.61 1.58 1.57 1.54 1.52 1.53 1.51 1.48 1.45 1.39 1.29 1.21 1.07 0.91 0.75 0.64 0.59 0.58 0.52 0.49 0.47
1.47 1.47 1.50 1.50 1.49 1.45 1.43 1.49 1.54 1.60 1.61 1.63 1.59 1.50 1.48 1.49 1.55 1.63 1.66 1.66 1.63 1.60 1.53 1.48 1.45 1.44 1.38 1.34 1.27 1.22 1.23 1.14 1.03 0.92 0.82 0.73 0.67 0.60 0.53 0.51 0.50 0.49 0.49
1.42 1.43 1.42 1.42 1.41 1.42 1.41 1.41 1.33 1.41 1.51 1.55 1.56 1.53 1.56 1.56 1.57 1.59 1.60 1.58 1.57 1.55 1.43 1.40 1.32 1.26 1.22 1.15 1.04 0.98 0.93 0.88 0.89 0.86 0.76 0.65 0.59 0.55 0.53 0.51 0.52 0.53 0.54
1.29 1.28 1.28 1.28 1.30 1.31 1.30 1.33 1.34 1.29 1.28 1.29 1.33 1.34 1.34 1.34 1.31 1.30 1.33 1.38 1.31 1.31 1.25 1.23 1.11 1.03 0.98 0.94 0.92 0.91 0.85 0.75 0.70 0.67 0.65 0.62 0.60 0.57 0.54 0.53 0.56 0.57 0.59
0.94 0.94 0.96 0.96 0.99 1.07 1.12 1.17 1.23 1.27 1.26 1.25 1.24 1.18 1.12 1.08 1.08 1.10 1.14 1.11 1.08 1.07 1.04 1.05 1.03 0.97 0.93 0.90 0.83 0.78 0.72 0.68 0.67 0.62 0.57 0.57 0.58 0.59 0.60 0.61 0.60 0.58 0.61
0.80 0.76 0.77 0.70 0.70 0.70 0.76 0.82 0.86 0.89 0.92 0.92 0.87 0.81 0.80 0.81 0.81 0.81 0.87 0.91 0.92 0.89 0.89 0.86 0.83 0.81 0.79 0.77 0.74 0.69 0.64 0.60 0.61 0.60 0.62 0.63 0.64 0.65 0.64 0.61 0.59 0.58 0.58
0.68 0.68 0.72 0.72 0.65 0.63 0.64 0.66 0.66 0.66 0.65 0.65 0.66 0.68 0.69 0.71 0.72 0.74 0.76 0.80 0.82 0.81 0.82 0.81 0.79 0.79 0.77 0.73 0.69 0.65 0.62 0.59 0.59 0.59 0.57 0.59 0.61 0.61 0.60 0.59 0.53 0.52 0.53
0.69 0.66 0.65 0.68 0.73 0.69 0.63 0.61 0.58 0.56 0.54 0.53 0.51 0.53 0.52 0.55 0.59 0.59 0.62 0.66 0.69 0.71 0.73 0.71 0.68 0.67 0.68 0.66 0.64 0.60 0.56 0.55 0.56 0.55 0.54 0.53 0.50 0.48 0.47 0.47 0.50 0.53 0.54
0.72 0.65 0.62 0.63 0.67 0.69 0.64 0.61 0.58 0.56 0.54 0.52 0.48 0.45 0.43 0.48 0.53 0.54 0.56 0.60 0.63 0.62 0.62 0.61 0.59 0.60 0.63 0.63 0.63 0.61 0.56 0.54 0.53 0.51 0.48 0.46 0.46 0.47 0.49 0.50 0.50 0.51 0.51
0.70 0.63 0.60 0.60 0.60 0.60 0.61 0.62 0.62 0.58 0.57 0.55 0.52 0.50 0.49 0.50 0.53 0.55 0.55 0.58 0.60 0.60 0.62 0.60 0.59 0.57 0.57 0.55 0.54 0.52 0.48 0.46 0.48 0.47 0.52 0.53 0.54 0.53 0.55 0.54 0.54 0.55 0.54
0.79 0.71 0.64 0.61 0.59 0.55 0.55 0.55 0.58 0.59 0.58 0.57 0.58 0.60 0.60 0.60 0.59 0.59 0.62 0.63 0.62 0.61 0.63 0.64 0.64 0.63 0.63 0.60 0.57 0.57 0.57 0.56 0.60 0.63 0.65 0.66 0.64 0.62 0.61 0.59 0.57 0.54 0.52
0.84 0.83 0.75 0.65 0.62 0.58 0.57 0.59 0.60 0.62 0.63 0.63 0.64 0.65 0.64 0.63 0.65 0.65 0.64 0.64 0.65 0.66 0.67 0.68 0.67 0.67 0.66 0.66 0.67 0.66 0.65 0.64 0.65 0.66 0.70 0.68 0.66 0.65 0.63 0.61 0.61 0.60 0.59

GFSGL_prec_pwat_135.txt.gz
Precipitable_Water
1.51 1.58 1.60 1.65 1.77 1.78 1.73 1.77 1.77 1.74 1.72 1.65 1.72 1.76 1.73 1.70 1.72 1.76 1.57 1.65 1.79 1.59 1.50 1.58 1.60 1.56 1.49 1.51 1.57 1.46 1.35 1.32 1.17 1.26 1.48 1.66 1.57 1.43 1.75 1.79 1.75 1.51 1.49
1.59 1.57 1.64 1.69 1.73 1.77 1.79 1.86 1.92 1.85 1.87 1.85 1.83 1.77 1.75 1.70 1.73 1.72 1.69 1.62 1.63 1.55 1.52 1.50 1.47 1.47 1.48 1.40 1.25 1.24 1.22 1.39 1.40 1.25 1.36 1.50 1.59 1.82 1.80 1.76 1.79 1.55 1.55
1.65 1.62 1.61 1.68 1.77 1.77 1.89 1.86 2.02 1.99 1.98 1.96 2.00 1.93 1.92 1.91 1.95 1.90 1.85 1.85 1.75 1.78 1.66 1.59 1.58 1.52 1.44 1.43 1.56 1.59 1.63 1.79 1.62 1.49 1.53 1.73 1.86 1.90 1.95 1.93 1.93 1.73 1.64
1.68 1.66 1.61 1.62 1.69 1.72 1.77 1.84 1.91 1.95 1.99 2.01 2.00 1.99 2.02 2.02 1.98 1.97 1.96 1.91 1.83 1.77 1.71 1.69 1.64 1.70 1.74 1.63 1.60 1.69 1.69 1.65 1.67 1.72 1.80 1.88 1.93 2.05 1.95 1.86 1.83 1.89 1.70
1.67 1.69 1.67 1.69 1.70 1.72 1.75 1.80 1.83 1.90 1.93 1.95 1.90 1.94 2.06 2.07 2.10 1.98 2.01 2.01 2.02 1.89 1.90 1.86 1.83 1.84 1.87 1.83 1.81 1.87 1.88 1.82 1.82 1.84 1.87 1.93 2.01 1.90 2.10 2.09 1.97 1.87 1.91
1.88 1.71 1.74 1.75 1.79 1.83 1.83 1.81 1.75 1.70 1.74 1.76 1.75 1.79 1.93 2.01 1.97 1.98 1.90 1.90 1.97 2.00 2.01 2.02 2.09 2.11 2.02 1.92 1.90 1.86 1.87 1.80 1.77 1.79 1.82 1.82 1.91 1.99 2.01 1.97 1.96 1.86 1.67
1.88 1.90 1.87 1.89 1.81 1.83 1.91 1.92 1.88 1.86 1.90 1.89 1.84 1.69 1.60 1.63 1.80 1.89 1.92 1.76 1.69 1.70 1.83 1.97 2.05 2.15 2.24 2.12 1.94 1.92 1.93 1.93 2.00 1.98 1.93 1.90 1.91 1.94 1.92 1.83 1.83 1.80 1.64
1.96 1.81 1.87 1.82 1.76 1.82 1.82 1.76 1.89 1.99 2.00 2.03 2.06 1.96 1.86 1.73 1.49 1.46 1.65 1.67 1.70 1.56 1.49 1.52 1.59 1.69 1.93 1.99 1.87 1.80 1.78 1.80 1.90 2.03 2.06 2.09 2.10 2.01 2.00 1.93 1.90 1.70 1.54
1.93 1.96 1.88 2.13 1.77 1.72 1.82 1.91 2.00 1.95 2.01 1.97 2.04 2.05 2.15 2.05 1.84 1.58 1.53 1.51 1.45 1.43 1.56 1.75 1.82 1.89 1.88 1.83 1.88 1.81 1.82 1.81 1.94 1.98 1.94 1.90 1.89 1.88 1.88 1.84 1.75 1.64 1.55
1.98 2.05 1.99 2.04 2.04 1.81 1.93 1.99 2.07 2.10 2.06 2.08 2.07 2.16 2.14 2.10 2.05 1.87 1.65 1.57 1.58 1.62 1.73 1.83 1.97 1.97 2.06 2.03 2.00 1.88 1.74 1.75 1.79 1.78 1.78 1.79 1.75 1.70 1.70 1.70 1.62 1.43 1.31
2.01 2.01 1.99 2.00 2.01 1.95 1.89 1.94 1.95 1.88 1.98 2.00 2.00 2.02 2.00 1.99 1.97 1.98 1.90 1.75 1.72 1.78 1.78 1.79 1.76 1.84 1.90 1.92 1.98 1.90 1.80 1.82 1.79 1.76 1.74 1.68 1.65 1.62 1.59 1.54 1.48 1.37 1.21
1.95 1.98 1.95 1.96 1.96 1.87 1.90 1.88 1.85 1.81 1.80 1.81 1.82 1.83 1.92 2.02 1.97 2.01 2.04 2.02 2.02 1.90 1.78 1.86 1.88 1.88 1.92 1.92 1.91 1.88 1.84 1.78 1.72 1.67 1.63 1.61 1.60 1.61 1.58 1.51 1.36 1.26 1.18
1.82 1.84 1.81 1.79 1.84 1.85 1.79 1.73 1.67 1.65 1.61 1.66 1.75 1.80 1.85 1.88 1.96 2.00 2.02 2.00 1.97 1.95 1.93 1.89 1.78 1.83 1.86 1.87 1.87 1.85 1.79 1.73 1.69 1.63 1.59 1.58 1.58 1.53 1.42 1.34 1.22 1.06 0.91
1.66 1.69 1.76 1.75 1.71 1.70 1.68 1.59 1.52 1.55 1.57 1.61 1.68 1.67 1.70 1.75 1.79 1.81 1.84 1.86 1.85 1.87 1.86 1.82 1.79 1.76 1.80 1.76 1.74 1.71 1.73 1.68 1.63 1.52 1.54 1.55 1.50 1.40 1.24 1.10 0.91 0.82 0.74
1.61 1.61 1.63 1.63 1.59 1.49 1.44 1.45 1.45 1.54 1.59 1.59 1.63 1.63 1.64 1.64 1.64 1.74 1.76 1.71 1.72 1.74 1.72 1.69 1.62 1.60 1.61 1.56 1.57 1.58 1.55 1.55 1.52 1.43 1.34 1.28 1.10 0.99 0.91 0.83 0.74 0.66 0.64
1.51 1.50 1.52 1.52 1.49 1.48 1.41 1.38 1.45 1.47 1.48 1.50 1.54 1.55 1.57 1.61 1.64 1.68 1.68 1.68 1.69 1.68 1.62 1.55 1.51 1.52 1.49 1.47 1.42 1.39 1.37 1.34 1.30 1.26 1.19 1.05 0.87 0.77 0.75 0.75 0.70 0.67 0.65
1.51 1.52 1.51 1.51 1.49 1.48 1.45 1.40 1.35 1.39 1.40 1.46 1.47 1.53 1.56 1.58 1.62 1.62 1.60 1.60 1.60 1.59 1.52 1.48 1.47 1.43 1.39 1.36 1.34 1.30 1.19 1.12 1.05 0.97 0.91 0.89 0.85 0.78 0.66 0.63 0.63 0.63 0.61
1.32 1.34 1.36 1.39 1.39 1.38 1.36 1.33 1.29 1.27 1.21 1.20 1.28 1.34 1.38 1.39 1.40 1.47 1.53 1.54 1.46 1.45 1.44 1.38 1.32 1.28 1.24 1.18 1.12 1.05 1.02 0.99 0.99 0.92 0.87 0.79 0.74 0.73 0.77 0.74 0.70 0.68 0.66
0.91 0.91 0.96 1.02 1.10 1.15 1.21 1.24 1.24 1.24 1.22 1.21 1.20 1.17 1.14 1.15 1.13 1.14 1.19 1.17 1.13 1.13 1.16 1.14 1.13 1.06 1.00 0.97 0.94 0.89 0.83 0.77 0.73 0.70 0.71 0.69 0.68 0.67 0.64 0.66 0.67 0.64 0.65
0.79 0.74 0.70 0.63 0.65 0.73 0.83 0.89 0.94 0.97 0.99 0.98 0.94 0.85 0.82 0.79 0.80 0.82 0.88 0.96 0.97 0.94 0.93 0.91 0.88 0.84 0.80 0.76 0.72 0.69 0.66 0.62 0.62 0.62 0.63 0.63 0.62 0.62 0.63 0.67 0.68 0.65 0.63
0.70 0.65 0.75 0.69 0.60 0.59 0.61 0.64 0.67 0.68 0.68 0.69 0.70 0.72 0.69 0.70 0.72 0.71 0.73 0.79 0.80 0.83 0.81 0.81 0.80 0.81 0.82 0.80 0.77 0.71 0.68 0.63 0.65 0.62 0.61 0.61 0.61 0.60 0.63 0.62 0.59 0.55 0.52
0.67 0.66 0.64 0.67 0.70 0.64 0.62 0.62 0.60 0.57 0.54 0.52 0.51 0.56 0.52 0.54 0.60 0.62 0.66 0.69 0.70 0.74 0.73 0.70 0.67 0.64 0.63 0.61 0.60 0.57 0.54 0.53 0.53 0.54 0.54 0.55 0.54 0.55 0.53 0.50 0.48 0.48 0.51
0.73 0.69 0.66 0.65 0.68 0.70 0.66 0.63 0.60 0.59 0.56 0.54 0.51 0.47 0.41 0.43 0.50 0.55 0.55 0.59 0.64 0.67 0.68 0.68 0.64 0.60 0.62 0.61 0.59 0.57 0.52 0.51 0.53 0.53 0.51 0.47 0.44 0.43 0.44 0.45 0.48 0.51 0.54
0.78 0.70 0.62 0.62 0.65 0.66 0.67 0.65 0.64 0.61 0.60 0.59 0.57 0.53 0.51 0.51 0.54 0.57 0.58 0.60 0.62 0.64 0.63 0.62 0.60 0.59 0.59 0.57 0.56 0.55 0.53 0.49 0.48 0.47 0.46 0.46 0.46 0.48 0.51 0.53 0.55 0.56 0.58
0.77 0.74 0.68 0.63 0.61 0.60 0.59 0.60 0.61 0.60 0.59 0.57 0.58 0.59 0.59 0.60 0.61 0.61 0.64 0.66 0.67 0.68 0.67 0.67 0.66 0.65 0.65 0.65 0.62 0.62 0.59 0.55 0.55 0.57 0.58 0.59 0.59 0.60 0.60 0.61 0.62 0.62 0.60
0.81 0.81 0.82 0.74 0.68 0.66 0.62 0.59 0.59 0.61 0.63 0.65 0.66 0.67 0.69 0.69 0.68 0.68 0.69 0.68 0.69 0.69 0.69 0.69 0.70 0.70 0.70 0.70 0.67 0.62 0.60 0.59 0.58 0.60 0.66 0.67 0.67 0.67 0.68 0.67 0.64 0.62 0.61

GFSGL_prec_pwat_138.txt.gz
Precipitable_Water
1.46 1.59 1.62 1.66 1.66 1.73 1.81 1.81 1.56 1.73 1.80 1.71 1.72 1.96 1.73 1.67 1.58 1.58 1.55 1.46 1.49 1.63 1.55 1.38 1.45 1.65 1.44 1.50 1.56 1.53 1.46 1.36 1.24 1.37 1.57 1.69 1.67 1.68 1.67 1.64 1.61 1.52 1.52
1.42 1.53 1.58 1.65 1.72 1.75 1.66 1.68 1.73 1.72 1.74 1.70 1.81 1.81 1.77 1.71 1.60 1.65 1.64 1.60 1.60 1.56 1.55 1.52 1.44 1.44 1.43 1.47 1.38 1.26 1.34 1.33 1.25 1.18 1.38 1.52 1.68 1.78 1.82 1.81 1.57 1.63 1.59
1.53 1.45 1.49 1.52 1.67 1.65 1.78 1.83 1.77 1.82 1.77 1.77 1.78 1.79 1.77 1.76 1.75 1.76 1.72 1.62 1.66 1.69 1.68 1.67 1.59 1.52 1.50 1.42 1.42 1.45 1.54 1.62 1.60 1.62 1.51 1.57 1.81 2.04 2.03 2.19 1.78 1.79 1.77
1.54 1.57 1.48 1.52 1.59 1.63 1.77 1.82 1.93 1.89 1.92 1.92 1.89 1.93 1.93 1.91 1.90 1.92 1.94 1.89 1.86 1.85 1.85 1.81 1.71 1.63 1.49 1.59 1.66 1.59 1.54 1.64 1.70 1.68 1.69 1.73 1.97 2.10 2.08 2.11 1.94 1.99 1.88
1.63 1.55 1.54 1.58 1.55 1.67 1.72 1.81 1.85 1.90 1.97 1.99 1.98 2.05 2.06 2.02 2.02 2.00 2.09 1.94 1.97 1.96 1.98 1.97 1.92 1.82 1.71 1.73 1.79 1.73 1.72 1.69 1.76 1.71 1.71 1.76 1.87 1.99 1.99 2.10 2.03 2.10 1.99
1.88 1.57 1.73 1.66 1.66 1.60 1.67 1.73 1.79 1.81 1.84 1.92 1.96 1.97 1.86 1.85 2.03 2.15 2.07 2.01 2.00 1.97 1.98 1.98 2.05 2.07 2.12 2.05 2.02 1.96 1.87 1.76 1.69 1.66 1.64 1.73 1.78 1.94 2.05 2.04 1.95 1.87 1.75
2.48 1.82 1.89 1.73 1.70 1.59 1.68 1.72 1.73 1.76 1.80 1.76 1.77 1.81 1.83 1.83 1.79 1.80 1.81 1.88 1.91 1.91 1.81 1.79 1.76 1.96 2.04 2.10 2.11 2.14 2.02 1.95 1.89 1.76 1.66 1.79 1.87 1.99 2.01 1.93 1.90 1.83 1.83
2.01 1.98 1.92 1.82 1.84 1.84 1.77 1.80 1.86 1.95 1.97 1.93 1.91 1.99 2.05 2.10 1.99 1.88 1.81 1.63 1.58 1.60 1.67 1.71 1.72 1.61 1.61 1.65 1.64 1.81 1.84 1.80 1.76 1.85 1.87 1.84 1.97 2.06 2.06 2.00 1.93 1.85 1.78
1.77 1.83 1.83 1.85 1.84 1.90 1.90 1.87 1.89 1.93 1.89 1.88 1.96 2.00 1.99 2.09 2.16 2.06 2.07 1.94 1.61 1.52 1.55 1.51 1.55 1.53 1.66 1.74 1.81 1.79 1.73 1.69 1.76 1.88 1.92 1.91 1.92 1.95 1.96 1.92 1.79 1.69 1.60
1.74 1.78 1.93 1.95 1.98 1.92 1.95 1.94 1.85 1.90 1.87 1.95 1.98 2.06 2.05 1.95 2.04 2.11 2.07 1.96 1.87 1.85 2.00 1.86 1.68 1.56 1.58 1.77 1.91 1.89 1.79 1.77 1.75 1.74 1.76 1.75 1.78 1.76 1.78 1.76 1.76 1.59 1.48
1.79 1.88 1.99 2.03 2.07 2.06 2.05 1.97 1.87 1.84 1.82 1.82 1.89 1.91 1.99 1.99 2.07 2.12 2.09 1.99 1.93 1.88 1.91 1.84 1.73 1.69 1.81 1.81 1.88 1.85 1.77 1.77 1.71 1.67 1.69 1.70 1.71 1.70 1.70 1.72 1.71 1.63 1.51
1.78 1.81 1.91 2.06 2.05 1.99 1.96 1.83 1.85 1.81 1.74 1.71 1.77 1.81 1.88 1.95 2.00 2.02 1.97 1.99 1.99 1.94 1.89 1.87 1.92 1.97 1.90 1.83 1.81 1.80 1.82 1.82 1.75 1.69 1.68 1.69 1.72 1.72 1.69 1.62 1.55 1.49 1.44
1.81 1.78 1.65 1.80 1.88 1.93 1.85 1.83 1.70 1.75 1.65 1.62 1.67 1.63 1.65 1.78 1.94 1.97 1.96 1.97 1.96 1.93 1.95 1.95 1.97 1.91 1.85 1.81 1.84 1.86 1.84 1.80 1.73 1.69 1.65 1.63 1.63 1.63 1.59 1.53 1.47 1.36 1.27
1.70 1.71 1.70 1.70 1.67 1.79 1.74 1.68 1.73 1.66 1.65 1.62 1.61 1.56 1.58 1.65 1.71 1.77 1.83 1.87 1.88 1.85 1.88 1.89 1.89 1.85 1.82 1.72 1.76 1.76 1.74 1.70 1.67 1.62 1.60 1.61 1.59 1.48 1.42 1.33 1.20 1.08 1.03
1.60 1.62 1.62 1.66 1.63 1.65 1.66 1.65 1.56 1.55 1.56 1.53 1.57 1.58 1.54 1.55 1.66 1.72 1.72 1.72 1.73 1.75 1.76 1.74 1.70 1.68 1.65 1.62 1.63 1.65 1.63 1.62 1.56 1.54 1.48 1.39 1.28 1.24 1.23 1.21 1.04 0.90 0.84
1.51 1.49 1.52 1.52 1.55 1.53 1.48 1.45 1.51 1.52 1.52 1.49 1.47 1.43 1.48 1.53 1.59 1.65 1.65 1.70 1.70 1.66 1.62 1.60 1.60 1.59 1.54 1.56 1.53 1.52 1.51 1.46 1.44 1.40 1.33 1.25 1.10 1.04 0.97 0.88 0.84 0.79 0.82
1.47 1.50 1.52 1.53 1.53 1.51 1.49 1.45 1.39 1.46 1.45 1.41 1.41 1.41 1.45 1.51 1.51 1.56 1.58 1.61 1.63 1.61 1.53 1.50 1.48 1.44 1.45 1.41 1.39 1.37 1.30 1.28 1.25 1.19 1.12 1.04 1.00 0.97 0.96 0.90 0.83 0.79 0.74
1.34 1.37 1.40 1.42 1.45 1.45 1.43 1.41 1.39 1.32 1.27 1.30 1.36 1.36 1.40 1.43 1.44 1.47 1.50 1.49 1.45 1.47 1.44 1.40 1.39 1.39 1.31 1.24 1.19 1.16 1.11 1.05 1.05 1.00 0.95 0.95 0.90 0.80 0.73 0.69 0.70 0.74 0.74
0.98 1.03 1.08 1.11 1.19 1.25 1.27 1.26 1.24 1.20 1.18 1.19 1.19 1.17 1.15 1.12 1.15 1.20 1.26 1.24 1.20 1.19 1.20 1.17 1.15 1.11 1.07 1.04 0.99 0.95 0.91 0.83 0.79 0.74 0.69 0.67 0.63 0.64 0.68 0.73 0.69 0.64 0.67
0.74 0.68 0.66 0.64 0.73 0.81 0.87 0.93 0.92 0.95 0.95 0.92 0.89 0.83 0.82 0.78 0.75 0.75 0.81 0.88 0.92 0.94 0.92 0.90 0.89 0.86 0.83 0.79 0.76 0.71 0.66 0.63 0.60 0.61 0.63 0.64 0.63 0.64 0.63 0.60 0.58 0.63 0.64
0.70 0.65 0.71 0.68 0.61 0.58 0.63 0.66 0.71 0.71 0.74 0.74 0.72 0.72 0.63 0.68 0.73 0.74 0.70 0.75 0.80 0.84 0.80 0.80 0.76 0.73 0.71 0.70 0.67 0.63 0.60 0.57 0.58 0.56 0.57 0.56 0.54 0.50 0.53 0.53 0.54 0.55 0.53
0.70 0.66 0.66 0.72 0.70 0.66 0.61 0.61 0.60 0.57 0.54 0.52 0.55 0.55 0.55 0.53 0.60 0.64 0.65 0.69 0.71 0.72 0.75 0.71 0.66 0.65 0.64 0.62 0.59 0.55 0.54 0.52 0.51 0.52 0.51 0.51 0.50 0.50 0.51 0.50 0.48 0.46 0.44
0.77 0.73 0.70 0.68 0.71 0.75 0.70 0.64 0.63 0.61 0.58 0.56 0.52 0.50 0.47 0.41 0.47 0.53 0.55 0.57 0.62 0.67 0.70 0.70 0.67 0.63 0.61 0.58 0.60 0.56 0.49 0.47 0.48 0.48 0.47 0.46 0.45 0.42 0.40 0.38 0.40 0.43 0.46
0.77 0.79 0.71 0.67 0.66 0.65 0.69 0.72 0.68 0.66 0.65 0.63 0.61 0.56 0.52 0.50 0.54 0.60 0.62 0.63 0.65 0.68 0.71 0.70 0.68 0.64 0.65 0.63 0.62 0.61 0.59 0.56 0.54 0.52 0.50 0.47 0.43 0.44 0.46 0.48 0.50 0.52 0.55
0.75 0.79 0.79 0.71 0.65 0.64 0.63 0.64 0.66 0.68 0.67 0.62 0.59 0.62 0.62 0.61 0.62 0.63 0.66 0.67 0.68 0.70 0.72 0.71 0.71 0.68 0.67 0.67 0.66 0.65 0.64 0.60 0.57 0.57 0.56 0.55 0.55 0.56 0.53 0.56 0.57 0.59 0.62
0.82 0.78 0.80 0.88 0.80 0.72 0.68 0.66 0.65 0.66 0.66 0.66 0.66 0.66 0.68 0.70 0.71 0.70 0.70 0.70 0.71 0.72 0.74 0.74 0.74 0.73 0.72 0.72 0.72 0.70 0.64 0.61 0.60 0.59 0.60 0.62 0.62 0.63 0.63 0.63 0.66 0.65 0.64

GFSGL_prec_pwat_141.txt.gz
Precipitable_Water
1.38 1.39 1.44 1.50 1.54 1.50 1.56 1.52 1.59 1.72 1.73 1.71 1.84 1.87 1.86 1.64 1.67 1.54 1.57 1.52 1.41 1.42 1.48 1.43 1.40 1.47 1.42 1.46 1.51 1.55 1.50 1.42 1.18 1.41 1.59 1.75 1.77 1.71 1.69 1.65 1.69 1.51 1.58
1.36 1.36 1.42 1.50 1.56 1.56 1.60 1.64 1.74 1.64 1.73 1.76 1.70 1.62 1.73 1.62 1.65 1.56 1.52 1.60 1.55 1.49 1.57 1.60 1.53 1.51 1.45 1.41 1.37 1.50 1.55 1.60 1.42 1.26 1.46 1.66 1.69 1.76 1.81 1.82 1.86 1.78 1.68
1.43 1.33 1.36 1.41 1.51 1.62 1.60 1.67 1.68 1.65 1.65 1.71 1.67 1.60 1.68 1.74 1.72 1.71 1.68 1.65 1.62 1.63 1.65 1.67 1.66 1.62 1.51 1.47 1.45 1.35 1.43 1.46 1.52 1.47 1.56 1.89 1.87 1.91 1.93 1.90 1.87 1.90 1.83
1.68 1.50 1.34 1.40 1.47 1.51 1.62 1.73 1.71 1.71 1.70 1.73 1.73 1.78 1.81 1.84 1.84 1.84 1.84 1.83 1.83 1.80 1.80 1.81 1.79 1.81 1.67 1.62 1.47 1.51 1.61 1.58 1.62 1.64 1.66 1.68 1.77 1.92 2.02 1.92 1.85 1.94 1.91
1.78 1.75 1.51 1.54 1.47 1.54 1.61 1.64 1.84 1.85 1.93 1.87 1.87 1.89 1.94 1.96 1.94 1.91 1.92 1.97 1.98 1.89 1.92 1.92 1.97 1.95 1.89 1.85 1.74 1.65 1.69 1.69 1.63 1.61 1.64 1.70 1.73 1.79 1.82 1.99 1.90 1.96 2.03
1.88 1.88 1.82 1.67 1.65 1.57 1.59 1.69 1.76 1.79 1.88 1.85 1.91 1.96 1.92 2.00 2.06 2.00 2.02 2.09 2.04 1.97 1.90 1.94 1.98 2.01 2.00 2.09 2.12 2.14 2.08 1.92 1.79 1.68 1.66 1.60 1.57 1.70 1.85 1.88 1.94 1.92 1.81
1.78 1.99 1.86 1.87 1.69 1.77 1.74 1.74 1.68 1.73 1.81 1.79 1.79 1.81 1.79 1.84 1.87 1.82 1.83 1.83 1.84 1.85 1.88 1.89 1.89 1.89 1.88 1.82 1.86 1.95 1.99 2.02 2.07 1.94 1.78 1.78 1.64 1.72 1.79 1.87 1.94 1.93 1.87
1.78 1.83 1.89 1.97 1.95 1.73 1.71 1.63 1.66 1.69 1.70 1.74 1.81 1.86 1.87 1.94 2.01 2.08 2.03 1.91 1.87 1.83 1.71 1.62 1.56 1.66 1.74 1.73 1.70 1.55 1.43 1.45 1.57 1.70 1.75 1.74 1.80 1.91 1.99 1.97 1.98 1.93 1.89
1.94 1.94 1.90 1.87 1.83 1.97 1.91 1.75 1.82 1.79 1.85 1.87 1.97 2.02 2.01 1.97 2.02 2.05 2.09 2.11 2.01 1.99 1.96 1.83 1.74 1.55 1.60 1.67 1.62 1.51 1.55 1.68 1.75 1.77 1.78 1.79 1.82 1.91 1.98 1.99 1.82 1.73 1.59
1.69 1.74 1.99 2.10 2.11 2.07 2.11 2.03 1.96 1.96 1.99 1.99 1.96 2.00 2.02 1.98 2.02 2.03 2.03 1.99 2.00 2.00 1.96 1.92 1.92 1.88 1.87 1.91 1.84 1.75 1.57 1.47 1.63 1.73 1.70 1.72 1.74 1.69 1.72 1.77 1.75 1.69 1.60
1.77 1.70 1.78 1.90 1.99 2.03 1.98 1.94 1.86 1.83 1.80 1.79 1.73 1.75 1.78 1.80 1.78 1.85 1.95 1.95 1.96 1.99 1.98 1.94 2.01 1.97 1.92 1.92 1.93 1.81 1.71 1.72 1.67 1.65 1.64 1.64 1.64 1.65 1.68 1.72 1.77 1.69 1.60
1.77 1.71 1.74 1.80 1.95 2.04 1.96 1.91 1.89 1.82 1.75 1.73 1.74 1.71 1.75 1.77 1.77 1.78 1.92 1.98 2.02 1.92 1.89 1.88 1.88 1.92 1.90 1.90 1.84 1.90 1.92 1.87 1.78 1.65 1.60 1.58 1.67 1.71 1.76 1.79 1.80 1.75 1.69
1.66 1.68 1.67 1.68 1.73 1.82 1.89 1.87 1.84 1.82 1.77 1.73 1.70 1.68 1.68 1.76 1.74 1.75 1.77 1.84 1.91 1.93 1.92 1.97 1.92 1.89 1.88 1.89 1.87 1.86 1.85 1.76 1.71 1.65 1.63 1.64 1.65 1.65 1.64 1.61 1.57 1.53 1.47
1.53 1.60 1.54 1.53 1.55 1.61 1.69 1.80 1.74 1.72 1.70 1.65 1.61 1.62 1.60 1.63 1.62 1.68 1.73 1.79 1.81 1.81 1.83 1.87 1.88 1.87 1.84 1.82 1.77 1.80 1.78 1.71 1.63 1.60 1.60 1.63 1.64 1.57 1.49 1.46 1.38 1.35 1.24
1.53 1.55 1.48 1.54 1.60 1.60 1.61 1.59 1.59 1.60 1.62 1.58 1.55 1.56 1.51 1.46 1.53 1.61 1.63 1.64 1.68 1.71 1.71 1.70 1.67 1.67 1.65 1.68 1.69 1.69 1.70 1.68 1.58 1.56 1.52 1.46 1.41 1.34 1.27 1.29 1.28 1.25 1.16
1.43 1.45 1.45 1.40 1.47 1.52 1.52 1.52 1.58 1.57 1.57 1.55 1.53 1.53 1.52 1.51 1.51 1.53 1.56 1.58 1.58 1.62 1.56 1.51 1.53 1.56 1.56 1.59 1.57 1.56 1.55 1.53 1.47 1.39 1.32 1.30 1.23 1.16 1.06 1.05 1.08 1.04 0.95
1.35 1.41 1.44 1.46 1.46 1.45 1.45 1.43 1.39 1.46 1.49 1.50 1.47 1.49 1.48 1.48 1.48 1.47 1.49 1.52 1.51 1.55 1.49 1.49 1.48 1.47 1.47 1.47 1.43 1.37 1.33 1.34 1.32 1.25 1.10 1.02 1.00 0.98 0.95 0.94 0.91 0.86 0.81
1.32 1.36 1.37 1.41 1.43 1.43 1.43 1.42 1.42 1.37 1.33 1.34 1.41 1.44 1.44 1.44 1.41 1.40 1.41 1.40 1.33 1.38 1.42 1.38 1.35 1.37 1.35 1.33 1.29 1.22 1.14 1.09 1.05 1.01 0.98 0.95 0.93 0.87 0.81 0.76 0.73 0.69 0.70
1.04 1.10 1.16 1.20 1.25 1.29 1.31 1.29 1.26 1.21 1.19 1.19 1.17 1.16 1.20 1.23 1.24 1.24 1.25 1.20 1.14 1.11 1.14 1.16 1.15 1.11 1.09 1.05 1.01 0.96 0.91 0.85 0.83 0.79 0.74 0.68 0.63 0.61 0.61 0.60 0.61 0.65 0.64
0.68 0.70 0.75 0.74 0.81 0.87 0.92 0.94 0.93 0.91 0.87 0.82 0.79 0.75 0.74 0.71 0.69 0.73 0.80 0.83 0.86 0.87 0.89 0.87 0.85 0.80 0.76 0.73 0.70 0.67 0.63 0.60 0.58 0.56 0.54 0.53 0.51 0.55 0.57 0.53 0.50 0.48 0.52
0.68 0.62 0.66 0.65 0.67 0.68 0.69 0.73 0.79 0.79 0.79 0.74 0.71 0.69 0.60 0.58 0.64 0.65 0.58 0.63 0.71 0.73 0.74 0.70 0.66 0.65 0.65 0.62 0.61 0.56 0.52 0.52 0.50 0.50 0.55 0.56 0.52 0.50 0.52 0.51 0.50 0.48 0.48
0.75 0.71 0.69 0.69 0.66 0.63 0.65 0.61 0.58 0.58 0.60 0.56 0.58 0.58 0.54 0.53 0.58 0.61 0.62 0.64 0.67 0.70 0.71 0.71 0.67 0.64 0.63 0.59 0.57 0.55 0.53 0.53 0.50 0.51 0.50 0.50 0.48 0.47 0.47 0.47 0.46 0.45 0.41
0.82 0.79 0.75 0.74 0.71 0.70 0.69 0.67 0.62 0.59 0.57 0.56 0.56 0.54 0.54 0.49 0.49 0.54 0.62 0.64 0.64 0.64 0.69 0.69 0.67 0.66 0.65 0.62 0.60 0.57 0.52 0.48 0.48 0.47 0.46 0.44 0.43 0.43 0.42 0.39 0.38 0.38 0.39
0.80 0.77 0.78 0.76 0.73 0.70 0.70 0.70 0.69 0.68 0.66 0.63 0.60 0.59 0.55 0.53 0.51 0.53 0.58 0.61 0.64 0.67 0.72 0.72 0.70 0.67 0.64 0.62 0.63 0.61 0.59 0.55 0.53 0.51 0.50 0.46 0.44 0.43 0.41 0.42 0.44 0.47 0.50
0.73 0.77 0.79 0.79 0.71 0.69 0.68 0.66 0.70 0.73 0.72 0.69 0.67 0.64 0.59 0.57 0.57 0.62 0.64 0.68 0.70 0.72 0.74 0.74 0.74 0.72 0.71 0.69 0.69 0.67 0.65 0.63 0.60 0.57 0.57 0.54 0.51 0.52 0.53 0.53 0.54 0.56 0.56
0.74 0.77 0.83 0.84 0.85 0.79 0.76 0.70 0.67 0.68 0.69 0.70 0.68 0.68 0.69 0.66 0.67 0.68 0.70 0.70 0.70 0.71 0.72 0.75 0.74 0.73 0.72 0.72 0.74 0.74 0.72 0.67 0.64 0.62 0.62 0.59 0.57 0.60 0.60 0.57 0.57 0.59 0.60

GFSGL_prec_pwat_147.txt.gz
Precipitable_Water
1.44 1.44 1.48 1.50 1.54 1.53 1.53 1.71 1.60 1.61 1.52 1.51 1.62 1.64 1.54 1.55 1.56 1.46 1.44 1.44 1.38 1.35 1.32 1.32 1.35 1.39 1.35 1.43 1.48 1.45 1.41 1.37 1.23 1.42 1.62 1.63 1.69 1.73 1.81 1.84 1.80 1.81 1.86
1.53 1.47 1.40 1.49 1.55 1.53 1.49 1.56 1.69 1.64 1.63 1.64 1.79 1.81 1.69 1.64 1.67 1.52 1.46 1.54 1.46 1.41 1.39 1.35 1.34 1.43 1.43 1.48 1.41 1.38 1.37 1.44 1.33 1.27 1.54 1.60 1.65 1.70 1.81 1.88 1.83 1.87 1.91
1.61 1.50 1.48 1.46 1.45 1.50 1.57 1.52 1.57 1.60 1.60 1.69 1.69 1.66 1.69 1.72 1.82 1.74 1.66 1.61 1.53 1.51 1.50 1.45 1.45 1.55 1.57 1.53 1.57 1.51 1.51 1.52 1.42 1.32 1.34 1.62 1.68 1.75 1.80 1.82 1.75 1.78 1.88
1.79 1.64 1.52 1.52 1.51 1.45 1.58 1.64 1.58 1.58 1.57 1.62 1.68 1.66 1.64 1.68 1.69 1.68 1.71 1.68 1.67 1.64 1.64 1.64 1.62 1.60 1.59 1.66 1.76 1.76 1.69 1.65 1.55 1.46 1.44 1.57 1.64 1.71 1.74 1.69 1.65 1.74 1.75
1.98 1.93 1.79 1.69 1.56 1.49 1.50 1.59 1.62 1.61 1.62 1.65 1.69 1.73 1.69 1.66 1.65 1.65 1.66 1.71 1.74 1.73 1.82 1.84 1.85 1.88 1.84 1.87 1.86 1.83 1.82 1.75 1.71 1.63 1.62 1.66 1.66 1.64 1.60 1.73 1.68 1.68 1.60
1.93 2.00 2.01 1.90 1.78 1.56 1.48 1.54 1.55 1.58 1.58 1.63 1.66 1.65 1.63 1.69 1.76 1.75 1.78 1.82 1.81 1.80 1.79 1.91 2.01 2.02 2.02 2.01 2.04 2.03 1.98 1.88 1.88 1.86 1.87 1.84 1.90 1.99 1.89 1.74 1.70 1.65 1.52
1.97 1.97 2.08 2.00 1.92 1.82 1.64 1.56 1.54 1.60 1.67 1.66 1.66 1.72 1.72 1.80 1.83 1.85 1.92 2.03 1.95 1.92 1.91 1.95 2.02 2.09 2.03 1.98 1.97 1.93 1.90 1.88 1.85 1.74 1.54 1.54 1.53 1.69 1.74 1.65 1.63 1.62 1.55
1.83 1.97 1.96 2.02 1.97 1.91 1.80 1.65 1.59 1.60 1.63 1.68 1.70 1.77 1.83 1.96 1.97 1.95 1.95 1.93 1.90 1.86 1.85 1.85 1.79 1.78 1.78 1.72 1.67 1.60 1.57 1.59 1.59 1.56 1.52 1.54 1.57 1.63 1.66 1.71 1.73 1.78 1.82
1.76 1.85 1.94 2.02 1.92 1.89 1.83 1.82 1.86 1.71 1.61 1.71 1.76 1.73 1.84 1.89 1.90 1.90 1.91 1.84 1.86 1.94 2.07 2.10 2.03 2.03 2.04 2.05 1.90 1.79 1.75 1.74 1.78 1.73 1.73 1.68 1.69 1.76 1.83 1.85 1.79 1.73 1.63
1.62 1.77 1.87 1.88 1.83 1.80 1.86 1.87 1.98 1.98 1.83 1.79 1.72 1.78 1.90 1.79 1.88 1.84 1.83 1.89 1.87 1.91 1.99 2.02 2.03 2.01 2.02 2.04 1.97 1.87 1.77 1.80 1.80 1.79 1.79 1.77 1.78 1.80 1.83 1.85 1.80 1.69 1.62
1.59 1.60 1.64 1.72 1.79 1.93 1.94 1.96 1.91 1.93 1.91 1.90 1.90 1.85 1.80 1.79 1.81 1.94 2.01 1.99 1.95 1.94 1.93 1.93 1.96 1.97 1.98 1.97 1.95 1.89 1.88 1.92 1.81 1.78 1.73 1.73 1.73 1.72 1.68 1.76 1.82 1.70 1.60
1.57 1.59 1.62 1.66 1.70 1.75 1.77 1.84 1.92 1.89 1.81 1.78 1.83 1.87 1.81 1.85 1.90 1.93 1.95 1.95 1.97 1.87 1.84 1.86 1.85 1.81 1.82 1.92 1.95 1.95 1.89 1.84 1.76 1.71 1.69 1.68 1.69 1.68 1.67 1.71 1.72 1.74 1.74
1.44 1.48 1.51 1.61 1.63 1.62 1.60 1.56 1.62 1.76 1.80 1.79 1.83 1.82 1.85 1.89 1.91 1.94 1.92 1.91 1.92 1.84 1.83 1.84 1.89 1.89 1.88 1.87 1.89 1.89 1.85 1.79 1.76 1.71 1.69 1.66 1.65 1.64 1.66 1.62 1.58 1.57 1.58
1.39 1.41 1.43 1.45 1.46 1.53 1.48 1.50 1.49 1.51 1.60 1.69 1.73 1.71 1.77 1.83 1.83 1.86 1.83 1.82 1.85 1.81 1.77 1.79 1.77 1.74 1.76 1.77 1.77 1.78 1.81 1.76 1.72 1.66 1.61 1.62 1.62 1.56 1.47 1.46 1.37 1.33 1.27
1.35 1.37 1.30 1.34 1.34 1.39 1.44 1.46 1.41 1.41 1.44 1.55 1.62 1.67 1.66 1.68 1.76 1.78 1.79 1.76 1.76 1.73 1.71 1.67 1.63 1.61 1.58 1.59 1.61 1.64 1.67 1.68 1.62 1.62 1.57 1.53 1.48 1.41 1.33 1.30 1.27 1.25 1.20
1.24 1.31 1.33 1.36 1.39 1.41 1.39 1.35 1.39 1.45 1.53 1.52 1.58 1.63 1.69 1.71 1.72 1.71 1.71 1.71 1.68 1.68 1.61 1.53 1.52 1.53 1.51 1.52 1.53 1.53 1.57 1.57 1.57 1.54 1.49 1.40 1.27 1.20 1.15 1.09 1.03 0.99 0.96
1.21 1.22 1.23 1.30 1.31 1.31 1.31 1.32 1.29 1.39 1.46 1.47 1.51 1.55 1.61 1.62 1.65 1.64 1.62 1.61 1.60 1.56 1.47 1.45 1.42 1.41 1.44 1.46 1.46 1.46 1.44 1.48 1.42 1.35 1.28 1.22 1.12 1.01 0.95 0.92 0.92 0.90 0.86
1.22 1.20 1.24 1.25 1.27 1.29 1.32 1.31 1.32 1.30 1.29 1.34 1.45 1.49 1.51 1.53 1.52 1.52 1.52 1.52 1.42 1.43 1.38 1.34 1.31 1.31 1.33 1.32 1.31 1.25 1.22 1.20 1.17 1.11 1.03 0.97 0.93 0.87 0.80 0.75 0.69 0.66 0.64
1.05 1.09 1.15 1.20 1.24 1.25 1.26 1.23 1.23 1.26 1.26 1.27 1.30 1.34 1.35 1.33 1.33 1.33 1.35 1.30 1.26 1.25 1.25 1.24 1.22 1.17 1.14 1.12 1.09 1.04 0.97 0.91 0.86 0.79 0.75 0.69 0.66 0.59 0.54 0.52 0.51 0.53 0.54
0.78 0.79 0.86 0.90 0.93 0.95 0.95 0.95 0.92 0.90 0.88 0.89 0.84 0.83 0.85 0.84 0.80 0.84 0.88 0.87 0.86 0.85 0.84 0.81 0.80 0.79 0.76 0.72 0.68 0.65 0.62 0.58 0.54 0.51 0.51 0.48 0.46 0.47 0.45 0.46 0.47 0.50 0.52
0.58 0.64 0.69 0.75 0.76 0.74 0.74 0.72 0.71 0.70 0.67 0.63 0.61 0.59 0.59 0.57 0.57 0.57 0.62 0.66 0.68 0.69 0.70 0.70 0.66 0.63 0.60 0.56 0.53 0.50 0.47 0.46 0.45 0.45 0.45 0.47 0.48 0.46 0.48 0.48 0.47 0.47 0.47
0.69 0.60 0.61 0.64 0.66 0.67 0.67 0.68 0.67 0.65 0.64 0.60 0.59 0.59 0.55 0.50 0.52 0.53 0.53 0.56 0.62 0.66 0.70 0.72 0.71 0.66 0.63 0.59 0.54 0.50 0.45 0.45 0.43 0.43 0.44 0.47 0.47 0.46 0.46 0.45 0.46 0.46 0.46
0.72 0.72 0.67 0.63 0.64 0.63 0.60 0.62 0.61 0.63 0.63 0.64 0.63 0.61 0.59 0.54 0.50 0.53 0.57 0.60 0.62 0.63 0.66 0.67 0.67 0.65 0.64 0.63 0.60 0.59 0.54 0.52 0.53 0.52 0.50 0.49 0.49 0.48 0.47 0.45 0.44 0.43 0.42
0.73 0.75 0.73 0.74 0.75 0.74 0.71 0.68 0.65 0.66 0.65 0.65 0.67 0.67 0.65 0.64 0.59 0.57 0.62 0.64 0.66 0.69 0.71 0.71 0.71 0.69 0.69 0.70 0.70 0.69 0.67 0.66 0.64 0.60 0.57 0.53 0.50 0.49 0.47 0.45 0.44 0.44 0.43
0.71 0.73 0.75 0.75 0.75 0.76 0.76 0.75 0.75 0.73 0.75 0.73 0.71 0.71 0.69 0.69 0.64 0.63 0.64 0.66 0.66 0.69 0.71 0.73 0.73 0.73 0.72 0.72 0.73 0.73 0.74 0.72 0.66 0.62 0.59 0.57 0.55 0.54 0.53 0.51 0.49 0.48 0.48
0.76 0.68 0.72 0.75 0.78 0.79 0.76 0.75 0.75 0.77 0.77 0.77 0.76 0.77 0.74 0.71 0.68 0.64 0.65 0.67 0.68 0.71 0.74 0.76 0.77 0.78 0.80 0.80 0.79 0.79 0.77 0.77 0.73 0.70 0.66 0.63 0.62 0.60 0.58 0.57 0.57 0.56 0.54